Waarnemingen

Advertentie
Mijn weer
Freiburg, Duitsland (10803): temperatuur & dauwpunt: 19.02.2018 20:00:00 - 25.02.2018 20:00:00 (CET)Freiburg, Duitsland (10803): temperatuur 5cm & temperatuur -5cm: 19.02.2018 20:00:00 - 25.02.2018 20:00:00 (CET)Freiburg, Duitsland (10803): temperatuur -20cm & temperatuur -100cm: 19.02.2018 20:00:00 - 25.02.2018 20:00:00 (CET)Freiburg, Duitsland (10803): windsnelheid & windstoten: 19.02.2018 20:00:00 - 25.02.2018 20:00:00 (CET)Freiburg, Duitsland (10803): windrichting: 19.02.2018 20:00:00 - 25.02.2018 20:00:00 (CET)Freiburg, Duitsland (10803): luchtdruk: 19.02.2018 20:00:00 - 25.02.2018 20:00:00 (CET)Freiburg, Duitsland (10803): zicht: 19.02.2018 20:00:00 - 25.02.2018 20:00:00 (CET)Freiburg, Duitsland (10803): Zonneschijnduur: 19.02.2018 20:00:00 - 25.02.2018 20:00:00 (CET)Freiburg, Duitsland (10803): neerslag: 19.02.2018 20:00:00 - 25.02.2018 20:00:00 (CET)
Datum & Tijd tt [°C] td [°C] tt 5cm [°C] tt -5cm [°C] tt -20cm [°C] tt -100cm [°C] ff [km/u] ff [kn] fx [km/u] fx [kn] dd ppp [hPa] vv [km] sd [min] rr [mm]
25.02.2018 20:00:00 -2,6 -14,8 -4,5 -0,3 0,8 5,4 10 5 22 12 ONO 1022,9 38 0 0,0
25.02.2018 19:00:00 -2,1 -15,0 -4,2 -0,1 0,8 5,4 9 5 24 13 NO 1022,2 35 0 0,0
25.02.2018 18:00:00 -0,9 -19,0 -1,9 -0,1 0,8 5,4 14 7 29 15 ONO 1021,8 52 25 0,0
25.02.2018 17:00:00 0,1 -19,0 1,3 0,4 0,8 5,4 13 7 25 14 NO 1021,0 50 60 0,0
25.02.2018 16:00:00 0,9 -18,2 4,0 1,1 0,8 5,4 16 9 35 19 NO 1020,8 35 60 0,0
25.02.2018 15:00:00 0,8 -17,5 5,5 1,8 0,8 5,4 13 7 32 18 NO 1020,8 35 60 0,0
25.02.2018 14:00:00 0,7 -16,3 4,5 1,1 0,8 5,4 16 9 31 17 NNO 1021,0 33 60 0,0
25.02.2018 13:00:00 0,0 -16,6 6,3 0,4 0,8 5,4 11 6 21 11 N 1021,5 25 60 0,0
25.02.2018 12:00:00 -1,7 -16,2 3,7 -0,3 0,9 5,4 13 7 25 13 NO 1022,0 26 60 0,0
25.02.2018 11:00:00 -2,3 -15,0 2,7 -0,5 0,9 5,4 11 6 36 19 NO 1022,3 28 60 0,0
25.02.2018 10:00:00 -3,1 -14,5 -0,1 -0,9 0,9 5,4 10 5 29 16 O 1022,5 32 60 0,0
25.02.2018 09:00:00 -4,6 -14,3 -2,7 -1,8 1,0 5,4 12 6 31 17 NO 1022,5 24 54 0,0
25.02.2018 08:00:00 -5,9 -12,8 -7,8 -2,2 1,0 5,4 8 5 13 7 N 1022,1 33 0 0,0
25.02.2018 07:00:00 -5,2 -12,5 -8,3 -1,9 1,1 5,4 4 2 26 14 NO 1021,5 30 0 0,0
25.02.2018 06:00:00 -4,2 -12,5 -5,3 -1,6 1,1 5,4 18 10 30 16 OZO 1021,0 31 0 0,0
25.02.2018 05:00:00 -3,7 -11,6 -5,3 -1,3 1,2 5,4 9 5 26 14 O 1020,7 26 0 0,0
25.02.2018 04:00:00 -3,1 -11,2 -4,2 -0,9 1,2 5,4 17 9 34 18 O 1020,4 29 0 0,0
25.02.2018 03:00:00 -2,5 -11,0 -4,0 -0,7 1,3 5,4 18 10 34 18 ONO 1020,3 26 0 0,0
25.02.2018 02:00:00 -1,9 -10,8 -3,1 -0,5 1,3 5,5 18 10 38 21 O 1020,0 23 0 0,0
25.02.2018 01:00:00 -1,4 -10,6 -2,8 -0,3 1,4 5,5 22 12 48 26 O 1020,1 23 0 0,0
25.02.2018 00:00:00 -0,8 -9,9 -2,1 -0,2 1,4 5,5 21 11 39 21 O 1019,8 24 0 0,0
24.02.2018 23:00:00 0,0 -8,9 -1,6 -0,1 1,5 5,5 17 9 38 20 O 1019,5 27 0 0,0
24.02.2018 22:00:00 0,4 -8,9 -1,4 0,0 1,5 5,5 14 7 31 17 ONO 1019,2 26 0 0,0
24.02.2018 21:00:00 1,0 -9,7 -0,6 0,1 1,6 5,5 16 8 34 19 ONO 1018,8 28 0 0,0
24.02.2018 20:00:00 1,6 -10,9 -0,6 0,2 1,6 5,5 11 6 26 14 ONO 1018,3 21 0 0,0
24.02.2018 19:00:00 2,1 -11,4 -0,5 0,4 1,7 5,5 8 5 27 15 ONO 1017,7 24 0 0,0
24.02.2018 18:00:00 3,4 -12,1 1,6 0,9 1,6 5,5 14 8 27 15 ONO 1016,5 32 23 0,0
24.02.2018 17:00:00 5,1 -11,9 5,8 2,7 1,4 5,5 12 7 32 17 ONO 1015,5 33 60 0,0
24.02.2018 16:00:00 5,9 -10,8 8,3 3,6 1,2 5,5 13 7 30 16 NO 1014,7 35 60 0,0
24.02.2018 15:00:00 6,3 -8,2 9,6 3,1 1,0 5,5 10 5 33 18 NO 1014,5 32 60 0,0
24.02.2018 14:00:00 5,4 -7,8 8,3 1,9 0,9 5,5 19 10 34 19 O 1014,7 28 59 0,0
24.02.2018 13:00:00 4,2 -5,6 6,7 0,4 0,9 5,5 18 10 44 24 OZO 1015,2 27 28 0,0
24.02.2018 12:00:00 3,3 -4,4 4,6 0,0 0,9 5,5 21 11 38 20 O 1015,5 18 48 0,0
24.02.2018 11:00:00 2,3 -4,2 3,7 -0,3 1,0 5,6 8 4 16 9 NNO 1015,2 13 23 0,0
24.02.2018 10:00:00 0,5 -4,2 1,9 -0,4 1,0 5,6 6 4 13 7 N 1015,3 10 28 0,0
24.02.2018 09:00:00 -1,5 -5,4 -1,3 -0,6 1,0 5,6 9 5 22 12 N 1015,5 9 8 0,0
24.02.2018 08:00:00 -1,5 -5,2 -3,3 -0,6 1,0 5,6 11 6 16 9 N 1015,1 9 0 0,0
24.02.2018 07:00:00 -0,7 -5,0 -2,8 -0,4 1,0 5,6 8 5 15 8 N 1014,6 10 0 0,0
24.02.2018 06:00:00 -0,4 -5,0 -1,3 -0,3 1,0 5,6 7 4 23 12 NNO 1014,6 10 0 0,0
24.02.2018 05:00:00 0,8 -5,1 0,0 -0,3 1,0 5,6 11 6 30 16 ONO 1014,8 11 0 0,0
24.02.2018 04:00:00 1,1 -4,8 0,4 -0,2 1,0 5,6 14 8 30 16 O 1014,7 12 0 0,0
24.02.2018 03:00:00 1,0 -4,9 0,4 -0,2 1,0 5,6 6 3 27 15 O 1015,0 11 0 0,0
24.02.2018 02:00:00 1,0 -5,0 0,4 -0,2 1,0 5,6 11 6 25 14 ONO 1015,2 11 0 0,0
24.02.2018 01:00:00 1,2 -4,9 0,6 -0,2 1,0 5,6 14 8 24 13 O 1015,5 11 0 0,0
24.02.2018 00:00:00 1,1 -5,2 0,5 -0,2 1,0 5,6 11 6 21 11 O 1015,5 13 0 0,0
23.02.2018 23:00:00 0,5 -5,5 -0,2 -0,2 1,0 5,6 8 4 21 11 NNO 1015,4 14 0 0,0
23.02.2018 22:00:00 0,9 -5,3 0,3 -0,2 1,0 5,6 12 6 27 15 O 1015,9 13 0 0,0
23.02.2018 21:00:00 0,6 -5,5 0,1 -0,2 1,0 5,6 11 6 27 15 O 1015,8 14 0 0,0
23.02.2018 20:00:00 0,4 -5,9 0,0 -0,1 1,0 5,6 14 7 26 14 O 1015,7 14 0 0,0
23.02.2018 19:00:00 0,3 -5,9 -0,1 -0,1 1,0 5,7 11 6 26 14 ONO 1016,0 14 0 0,0
23.02.2018 18:00:00 0,3 -6,1 -0,1 -0,1 1,0 5,7 14 8 30 16 O 1015,8 14 0 0,0
23.02.2018 17:00:00 0,5 -6,1 0,3 -0,1 1,0 5,7 16 8 27 15 O 1015,1 14 0 0,0
23.02.2018 16:00:00 0,4 -6,1 0,4 -0,1 1,0 5,7 6 4 28 15 O 1015,3 13 0 0,0
23.02.2018 15:00:00 0,5 -6,1 0,7 -0,1 1,0 5,7 12 7 26 14 O 1015,3 14 0 0,0
23.02.2018 14:00:00 0,7 -5,9 1,5 -0,2 1,0 5,7 11 6 26 14 NNO 1014,9 15 0 0,0
23.02.2018 13:00:00 0,4 -6,1 1,5 -0,2 1,0 5,7 13 7 24 13 N 1015,1 14 0 0,0
23.02.2018 12:00:00 0,3 -6,1 1,5 -0,2 1,0 5,7 13 7 24 13 N 1015,3 15 0 0,0
23.02.2018 11:00:00 0,0 -6,2 0,6 -0,3 1,0 5,7 12 7 21 11 NNO 1015,5 14 0 0,0
23.02.2018 10:00:00 0,2 -6,3 0,4 -0,3 1,0 5,7 10 5 20 11 ONO 1015,3 16 0 0,0
23.02.2018 09:00:00 -0,1 -6,3 -0,3 -0,4 1,1 5,7 8 5 23 12 NO 1015,1 14 0 0,0
23.02.2018 08:00:00 -0,1 -6,0 -0,5 -0,5 1,1 5,7 9 5 27 15 O 1014,9 14 0 0,0
23.02.2018 07:00:00 -0,1 -6,1 -0,5 -0,5 1,1 5,7 15 8 27 14 O 1014,5 14 0 0,0
23.02.2018 06:00:00 -0,1 -6,1 -0,5 -0,5 1,1 5,7 13 7 26 14 O 1014,6 15 0 0,0
23.02.2018 05:00:00 0,0 -6,0 -0,4 -0,4 1,1 5,7 13 7 27 15 O 1014,8 15 0 0,0
23.02.2018 04:00:00 0,2 -5,9 -0,2 -0,4 1,1 5,7 12 7 31 17 O 1014,9 15 0 0,0
23.02.2018 03:00:00 0,5 -5,6 0,0 -0,4 1,1 5,7 15 8 32 17 O 1015,1 15 0 0,0
23.02.2018 02:00:00 0,6 -6,0 0,0 -0,4 1,1 5,7 16 9 30 16 O 1015,3 16 0 0,0
23.02.2018 01:00:00 0,8 -6,4 0,2 -0,4 1,1 5,7 15 8 29 16 ONO 1015,5 17 0 0,0
23.02.2018 00:00:00 0,9 -6,4 0,3 -0,4 1,1 5,8 11 6 23 13 O 1015,5 15 0 0,0
22.02.2018 23:00:00 1,1 -6,6 0,5 -0,3 1,2 5,8 16 9 37 20 ONO 1015,7 16 0 0,0
22.02.2018 22:00:00 1,1 -6,7 0,4 -0,3 1,2 5,8 13 7 25 13 NO 1015,4 14 0 0,0
22.02.2018 21:00:00 1,1 -7,0 0,4 -0,3 1,2 5,8 10 5 23 13 ONO 1015,6 16 0 0,0
22.02.2018 20:00:00 1,1 -6,9 0,3 -0,2 1,2 5,8 10 5 25 13 NO 1015,7 19 0 0,0
22.02.2018 19:00:00 1,2 -6,8 0,4 -0,2 1,2 5,8 11 6 27 14 NO 1015,5 18 0 0,0
22.02.2018 18:00:00 1,2 -6,7 0,6 -0,2 1,2 5,8 11 6 30 16 NO 1015,3 14 0 0,0
22.02.2018 17:00:00 1,1 -6,4 0,6 -0,2 1,2 5,8 13 7 24 13 NNO 1015,2 16 0 0,0
22.02.2018 16:00:00 1,0 -6,2 0,8 -0,2 1,2 5,8 11 6 24 13 NNO 1014,9 15 0 0,0
22.02.2018 15:00:00 0,7 -6,4 0,6 -0,2 1,3 5,8 13 7 27 14 NNO 1015,0 14 0 0,0
22.02.2018 14:00:00 0,4 -6,2 0,6 -0,2 1,3 5,8 14 8 31 17 NNO 1015,1 13 0 0,0
22.02.2018 13:00:00 -0,1 -6,5 0,4 -0,3 1,3 5,8 17 9 28 15 NNO 1015,5 12 0 0,0
22.02.2018 12:00:00 -0,3 -6,7 0,3 -0,3 1,3 5,8 16 9 32 17 NNO 1015,9 12 5 0,0
22.02.2018 11:00:00 -0,4 -7,6 0,0 -0,4 1,4 5,8 19 10 35 19 NO 1016,1 13 28 0,0
22.02.2018 10:00:00 -0,4 -7,3 0,0 -0,6 1,4 5,8 11 6 24 13 NO 1016,0 12 26 0,0
22.02.2018 09:00:00 -1,5 -6,9 -2,2 -1,0 1,5 5,8 10 6 22 12 NNO 1016,2 11 0 0,0
22.02.2018 08:00:00 -2,4 -7,0 -4,0 -1,2 1,6 5,8 10 5 16 9 N 1016,2 11 0 0,0
22.02.2018 07:00:00 -2,7 -6,7 -5,8 -1,3 1,7 5,8 8 4 16 8 N 1016,2 10 0 0,0
22.02.2018 06:00:00 -3,5 -6,3 -5,6 -1,1 1,8 5,8 10 5 13 7 NNW 1016,3 7 0 0,0
22.02.2018 05:00:00 -2,5 -6,5 -5,5 -0,8 1,8 5,8 9 5 18 10 N 1016,4 9 0 0,0
22.02.2018 04:00:00 -2,4 -6,0 -6,0 -0,6 1,9 5,8 8 5 12 7 N 1016,9 8 0 0,0
22.02.2018 03:00:00 -2,0 -6,1 -5,8 -0,4 2,0 5,8 6 3 11 6 N 1017,3 9 0 0,0
22.02.2018 02:00:00 -1,4 -5,8 -4,3 -0,3 2,1 5,8 7 4 16 8 N 1017,4 9 0 0,0
22.02.2018 01:00:00 -2,0 -5,5 -5,6 -0,1 2,3 5,8 6 3 11 6 N 1017,8 9 0 0,0
22.02.2018 00:00:00 -1,9 -5,3 -6,5 0,1 2,4 5,8 5 3 9 5 N 1018,2 8 0 0,0
21.02.2018 23:00:00 -0,9 -4,8 -4,5 0,2 2,5 5,8 2 1 7 4 ZZO 1018,4 7 0 0,0
21.02.2018 22:00:00 -2,8 -5,5 -5,4 0,4 2,7 5,8 3 2 5 3 WNW 1019,1 6 0 0,0
21.02.2018 21:00:00 -0,8 -4,5 -4,4 0,7 2,8 5,8 3 2 6 3 NW 1019,3 6 0 0,0
21.02.2018 20:00:00 -0,1 -4,3 -4,2 0,9 3,0 5,8 4 2 6 4 N 1019,1 7 0 0,0
21.02.2018 19:00:00 0,8 -4,8 -2,6 1,1 3,2 5,9 4 2 16 8 NNO 1019,1 7 0 0,0
21.02.2018 18:00:00 1,7 -5,0 0,0 1,9 3,3 5,9 9 5 28 15 NO 1018,5 8 12 0,0
21.02.2018 17:00:00 2,7 -5,5 3,1 3,8 3,2 5,9 15 8 32 18 NNO 1018,0 9 60 0,0
21.02.2018 16:00:00 3,4 -5,1 5,8 5,4 3,0 5,9 15 8 30 16 NNO 1017,7 11 60 0,0
21.02.2018 15:00:00 3,5 -4,7 6,7 5,9 2,6 5,9 16 9 31 17 NNO 1018,2 12 60 0,0
21.02.2018 14:00:00 3,0 -4,7 6,5 5,8 2,2 5,9 18 10 34 18 NNO 1018,8 12 60 0,0
21.02.2018 13:00:00 2,5 -4,8 5,8 4,6 1,9 5,9 20 11 37 20 NNO 1019,1 12 58 0,0
21.02.2018 12:00:00 2,1 -4,1 5,5 2,7 1,8 5,9 21 11 36 19 NNO 1019,6 17 56 0,0
21.02.2018 11:00:00 1,3 -4,6 3,0 0,4 1,8 5,9 16 9 29 16 N 1019,6 14 55 0,0
21.02.2018 10:00:00 0,8 -4,7 2,6 0,2 1,8 5,9 16 9 29 16 NNO 1019,4 13 58 0,0
21.02.2018 09:00:00 -0,2 -4,8 0,8 0,2 1,9 5,9 9 5 20 11 NNO 1019,5 11 34 0,0
21.02.2018 08:00:00 -0,6 -4,9 -1,6 0,3 1,9 5,9 9 5 14 8 N 1019,8 10 0 0,0
21.02.2018 07:00:00 -0,5 -4,8 -1,1 0,3 1,9 5,9 11 6 16 8 N 1019,9 9 0 0,0
21.02.2018 06:00:00 -0,2 -4,5 -1,0 0,3 2,0 5,9 5 3 16 8 NO 1019,7 9 0 0,0
21.02.2018 05:00:00 -0,3 -4,4 -0,9 0,4 2,0 5,9 7 4 15 8 N 1019,3 10 0 0,0
21.02.2018 04:00:00 -0,2 -4,4 -0,7 0,4 2,0 5,9 9 5 19 11 N 1018,9 10 0 0,0
21.02.2018 03:00:00 -0,1 -4,6 -0,6 0,4 2,1 5,9 9 5 17 9 NNO 1019,0 9 0 0,0
21.02.2018 02:00:00 -0,4 -4,6 -1,4 0,5 2,2 5,9 7 4 15 8 NNO 1018,8 10 0 0,0
21.02.2018 01:00:00 0,4 -4,9 -0,7 0,5 2,2 5,9 8 4 14 8 NNO 1018,4 12 0 0,0
21.02.2018 00:00:00 -0,2 -4,4 -1,2 0,6 2,3 5,9 6 3 9 5 NNW 1018,5 13 0 0,0
20.02.2018 23:00:00 0,9 -5,6 -0,2 0,6 2,3 5,9 6 3 18 10 NO 1018,4 15 0 0,0
20.02.2018 22:00:00 1,0 -4,3 0,4 0,7 2,4 5,9 6 3 11 6 ONO 1018,5 11 0 0,0
20.02.2018 21:00:00 0,7 -4,0 0,0 0,7 2,5 5,9 5 3 10 5 ONO 1018,4 10 0 0,0
20.02.2018 20:00:00 0,7 -4,8 -0,1 0,8 2,6 5,9 5 3 9 5 NNO 1018,2 17 0 0,0
20.02.2018 19:00:00 1,0 -5,4 -0,1 1,0 2,7 5,9 6 3 12 6 N 1018,1 20 0 0,0
20.02.2018 18:00:00 1,1 -5,3 0,5 1,3 2,7 5,9 9 5 20 11 NNO 1017,2 18 0 0,0
20.02.2018 17:00:00 1,1 -5,3 1,0 1,8 2,7 5,9 12 6 19 10 NNO 1016,5 19 0 0,0
20.02.2018 16:00:00 1,3 -4,2 1,5 2,1 2,7 5,9 9 5 16 9 N 1016,8 13 0 0,0
20.02.2018 15:00:00 1,1 -2,7 1,2 2,4 2,6 5,9 9 5 21 11 NNW 1016,9 9 0 0,0
20.02.2018 14:00:00 1,5 -3,2 2,6 2,9 2,5 5,9 8 4 13 7 N 1016,8 13 0 0,0
20.02.2018 13:00:00 0,9 -3,2 2,3 2,6 2,4 5,9 6 4 16 8 N 1016,8 11 0 0,0
20.02.2018 12:00:00 0,5 -3,0 1,4 2,2 2,4 5,9 14 8 21 11 NNW 1017,0 11 0 0,0
20.02.2018 11:00:00 0,4 -3,3 1,4 2,1 2,3 5,9 12 6 16 9 NW 1016,9 11 0 0,0
20.02.2018 10:00:00 0,2 -2,4 1,7 1,6 2,2 5,9 6 4 14 8 N 1017,0 8 0 0,0
20.02.2018 09:00:00 -0,1 -1,6 0,3 0,8 2,3 5,9 6 3 13 7 NNW 1017,0 4,5 0 0,0
20.02.2018 08:00:00 -0,4 -1,8 -0,6 0,5 2,3 6,0 9 5 13 7 NNW 1016,8 4,4 0 0,0
20.02.2018 07:00:00 -0,3 -1,9 -0,7 0,6 2,4 6,0 6 4 10 5 NNW 1016,5 5 0 0,0
20.02.2018 06:00:00 -0,1 -1,7 -0,5 0,7 2,5 6,0 4 2 8 4 N 1016,5 7 0 0,0
20.02.2018 05:00:00 -0,1 -1,9 -0,5 0,8 2,5 6,0 5 3 9 5 NNW 1016,6 8 0 0,0
20.02.2018 04:00:00 -0,3 -1,7 -0,5 0,9 2,6 6,0 6 3 10 5 NNW 1016,6 7 0 0,0
20.02.2018 03:00:00 0,1 -1,8 -0,3 1,0 2,7 6,0 5 3 7 4 N 1016,7 10 0 0,0
20.02.2018 02:00:00 -0,1 -1,4 -0,5 1,1 2,7 6,0 4 2 6 4 NW 1017,1 10 0 0,0
20.02.2018 01:00:00 0,0 -1,8 -0,3 1,2 2,8 6,0 4 2 5 3 NNW 1017,3 10 0 0,0
20.02.2018 00:00:00 0,3 -1,9 -0,3 1,3 2,9 6,0 3 2 6 3 N 1017,4 12 0 0,0
19.02.2018 23:00:00 0,3 -1,9 -0,2 1,4 3,0 6,0 5 3 5 3 NNW 1017,7 12 0 0,0
19.02.2018 22:00:00 0,5 -2,1 -0,1 1,6 3,0 6,0 4 2 6 3 NNW 1018,2 14 0 0,0
19.02.2018 21:00:00 1,0 -2,4 0,2 1,7 3,1 6,0 4 2 5 3 N 1018,4 14 0 0,0
19.02.2018 20:00:00 1,1 -2,6 0,4 1,9 3,2 6,0 4 2 8 5 N 1018,3 15 0 0,0

tt = temperatuur
td = dauwpunt
tt 5cm = temperatuur 5cm
tt -5cm = temperatuur -5cm
tt -20cm = temperatuur -20cm
tt -100cm = temperatuur -100cm
ff = windsnelheid
fx = windstoten
dd = windrichting
ppp = luchtdruk
vv = zicht
sd = Zonneschijnduur
rr = neerslag

Weerstations in de omgeving